Location: Summit Observatory
(39.5293°N, 75.7290°W)
Time: 13:16:25
(UTC-04:00)

Amateur Radio Satellites - All Passes

Search period start: 29 May 2016 12:46
Search period end: 30 May 2016 12:46
Location: Summit Observatory, 39.5293°N, 75.7290°W

Satellite Date Start Highest point End Downlink Frequencies (MHz)
Time Altitude Azimuth
Oscar 19 29 May 12:54:46 12:59:20 32° 68° (ENE) 13:03:55 437.125/150
POPSAT HIP 1 29 May 12:57:03 12:59:31 15° 267° (W) 13:02:00 437.405
QB50P1 29 May 12:57:20 12:59:44 15° 268° (W) 13:02:09 145.935-145.965
QB50P2 29 May 13:00:51 13:02:48 13° 268° (W) 13:04:45 145.880/145.840
POLYITAN 1 29 May 13:03:27 13:05:17 13° 268° (W) 13:07:07 437.675
ESTCUBE 1 29 May 13:09:16 13:13:30 39° 289° (WNW) 13:17:43 437.505/2401.250
DX 1 29 May 13:10:49 13:15:08 67° 286° (WNW) 13:19:26 434.975-435.025
CUBEBUG 1 29 May 13:10:53 13:15:07 52° 287° (WNW) 13:19:20 437.445
50 SAT 29 May 13:15:38 13:18:59 32° 288° (WNW) 13:22:20 437.505
CUSAT 1 29 May 13:21:18 13:26:54 27° 295° (WNW) 13:33:18 437.405
VELOX 1 29 May 13:23:07 13:27:15 40° 289° (WNW) 13:31:23 145.980
SPROUT 29 May 13:28:47 13:33:04 85° 280° (W) 13:37:18 437.525
AIST 2 29 May 13:29:07 13:33:09 58° 118° (ESE) 13:37:13 435.215
DANDE 29 May 13:32:36 13:37:55 39° 290° (WNW) 13:44:41 436.750
Gurwin Techsat 1B 29 May 13:33:04 13:37:41 31° 68° (ENE) 13:42:19 435.225
ITAMSAT 1 29 May 13:42:37 13:45:30 15° 61° (ENE) 13:48:24 435.822/435.867
TISAT 1 29 May 13:45:52 13:49:46 37° 98° (E) 13:53:36 437.305
UKube-1 29 May 13:56:57 14:00:31 26° 292° (WNW) 14:04:06 .
AISAT 29 May 14:00:35 14:03:22 17° 295° (WNW) 14:06:09 437.250
JAS-2 29 May 14:16:08 14:22:39 33° 267° (W) 14:29:34 435.910
BEESAT 29 May 14:18:00 14:20:54 16° 92° (E) 14:23:48 436.000
AO-85 29 May 14:30:19 14:34:48 43° 52° (NE) 14:38:53 145.980
Oscar 19 29 May 14:34:06 14:38:36 30° 264° (W) 14:43:08 437.125/150
AO-7 29 May 14:36:27 14:43:32 33° 59° (ENE) 14:50:38 29.400- 29.500
Cosmos 2491 29 May 14:38:21 14:46:20 38° 73° (ENE) 14:54:14 435.465 / 435.565
YUBILEINY 29 May 14:41:13 14:45:19 14° 76° (ENE) 14:49:26 435.215
AIST 2 29 May 15:09:27 15:11:59 16° 316° (NW) 15:14:33 435.215
Gurwin Techsat 1B 29 May 15:12:53 15:17:33 31° 264° (W) 15:22:17 435.225
ITAMSAT 1 29 May 15:19:14 15:24:23 68° 258° (WSW) 15:29:33 435.822/435.867
TISAT 1 29 May 15:22:21 15:25:07 17° 294° (WNW) 15:27:52 437.305
SWISSCUBE 29 May 15:24:41 15:29:31 88° 106° (ESE) 15:34:19 437.505
ITUPSAT 1 29 May 15:31:58 15:36:48 88° 286° (WNW) 15:41:37 437.325
BEESAT 29 May 15:54:19 15:58:57 51° 288° (WNW) 16:03:35 436.000
AO-85 29 May 16:11:48 16:14:49 18° 252° (WSW) 16:17:41 145.980
KKS-1 29 May 16:16:31 16:20:31 33° 97° (E) 16:24:30 437.445
Cosmos 2504 29 May 16:19:41 16:23:28 15° 77° (ENE) 16:27:20 435.465 / 435.565
AO-7 29 May 16:27:46 16:35:51 57° 257° (WSW) 16:44:03 29.400- 29.500
RS-15 29 May 16:31:20 16:41:35 43° 107° (ESE) 16:52:20 29.354- 29.394
YUBILEINY 29 May 16:31:57 16:40:38 82° 94° (E) 16:49:21 435.215
Cosmos 2491 29 May 16:35:04 16:43:14 46° 272° (W) 16:51:21 435.465 / 435.565
HORYU 2 29 May 16:39:54 16:44:10 49° 73° (ENE) 16:48:26 437.375
NOAA 18 29 May 16:43:39 16:45:04 11° 57° (ENE) 16:46:30 137.9125
STARS 29 May 16:46:29 16:50:29 35° 98° (E) 16:54:29 437.465
MOZHAYETS 4 29 May 16:46:40 16:51:14 55° 100° (E) 16:55:47
SWISSCUBE 29 May 17:05:46 17:06:33 10° 300° (WNW) 17:07:21 437.505
CUTE-I 29 May 17:11:50 17:14:55 16° 61° (ENE) 17:18:01 437.470
PCSat 29 May 17:36:38 17:40:30 19° 46° (NE) 17:44:21 145.827
BRITE-PL 29 May 17:46:45 17:51:55 38° 70° (ENE) 17:57:06 437.365/2234.400
NOAA 15 29 May 17:51:03 17:56:11 52° 71° (ENE) 18:01:21 137.62
KKS-1 29 May 17:53:30 17:56:54 22° 293° (WNW) 18:00:16 437.445
GOMX 1 29 May 18:01:20 18:05:43 25° 67° (ENE) 18:10:01 467.674
Cubesat XI-IV 29 May 18:03:47 18:08:50 46° 70° (ENE) 18:13:54 437.490
Cosmos 2504 29 May 18:08:22 18:15:35 85° 277° (W) 18:23:17 435.465 / 435.565
LilacSat-2 29 May 18:16:14 18:19:53 48° 74° (ENE) 18:23:33 437.200
CUBESAT XI-V 29 May 18:17:48 18:22:29 58° 101° (E) 18:27:05 437.345
HORYU 2 29 May 18:18:39 18:20:59 14° 268° (W) 18:23:20 437.375
NOAA 18 29 May 18:19:23 18:24:50 81° 74° (ENE) 18:30:19 137.9125
STARS 29 May 18:23:25 18:26:37 20° 294° (WNW) 18:29:48 437.465
MOZHAYETS 4 29 May 18:25:20 18:27:55 15° 296° (WNW) 18:30:31
YUBILEINY 29 May 18:32:25 18:38:29 20° 295° (WNW) 18:44:36 435.215
DOVE 4 29 May 18:39:16 18:43:34 27° 69° (ENE) 18:47:44 437.250
RS-15 29 May 18:42:27 18:53:37 58° 310° (NW) 19:05:28 29.354- 29.394
CUTE-I 29 May 18:49:06 18:54:22 68° 258° (WSW) 18:59:41 437.470
CINEMA 3 29 May 18:57:04 18:58:19 11° 63° (ENE) 18:59:35 145.822/145.860
PCSat 29 May 19:19:01 19:24:25 68° 245° (WSW) 19:29:46 145.827
HO-68 29 May 19:22:33 19:28:55 37° 64° (ENE) 19:35:19 435.675
BEESAT 2 29 May 19:23:46 19:26:00 14° 44° (NE) 19:28:14 435.950
BRITE-PL 29 May 19:25:26 19:30:21 30° 265° (W) 19:35:19 437.365/2234.400
O/OREOS (USA 219) 29 May 19:26:09 19:30:39 81° 68° (ENE) 19:35:06 437.305
NOAA 15 29 May 19:32:34 19:36:14 19° 267° (W) 19:39:55 137.62
GOMX 1 29 May 19:38:19 19:43:30 43° 262° (W) 19:48:36 467.674
Cubesat XI-IV 29 May 19:45:09 19:49:06 21° 266° (W) 19:53:06 437.490
AUBIESAT-1 29 May 19:47:13 19:51:10 53° 70° (ENE) 19:54:53 437.475
SEEDS 29 May 19:49:17 19:52:39 24° 69° (ENE) 19:56:02 437.485
CANX-2 29 May 19:50:32 19:54:27 39° 72° (ENE) 19:58:24 2200.000
BEESAT 3 29 May 19:53:01 19:56:49 42° 54° (NE) 20:00:34 437.485
LilacSat-2 29 May 19:53:49 19:54:27 10° 269° (W) 19:55:06 437.200
M-CUBED/EXP-1 PRIME 29 May 19:55:43 19:59:54 85° 75° (ENE) 20:03:45 437.505
CUBESAT XI-V 29 May 19:56:45 19:59:20 15° 296° (WNW) 20:01:55 437.345
NOAA 18 29 May 20:04:07 20:06:05 12° 270° (W) 20:08:04 137.9125
Cosmos 2504 29 May 20:06:39 20:10:19 14° 299° (WNW) 20:14:05 435.465 / 435.565
DOVE 4 29 May 20:16:20 20:21:05 35° 263° (W) 20:25:42 437.250
CUTE 1.7 + AOD 2 29 May 20:17:03 20:21:13 72° 76° (ENE) 20:25:26 437.475
ISS 29 May 20:28:05 20:31:06 36° 136° (SE) 20:34:08 145.825
STRAND 1 29 May 20:30:05 20:35:16 86° 285° (WNW) 20:40:25 437.568
CINEMA 3 29 May 20:30:10 20:34:54 76° 257° (WSW) 20:39:26 145.822/145.860
COMPASS 1 29 May 20:30:23 20:34:23 50° 74° (ENE) 20:38:26 437.405
GONETS M04 29 May 20:30:24 20:35:45 18° 78° (ENE) 20:41:04
AAUSAT CUBESAT 2 29 May 20:30:48 20:34:39 40° 72° (ENE) 20:38:32 437.432
Oscar 11 29 May 20:31:41 20:34:32 18° 66° (ENE) 20:37:23 145.826/435.025
PRISM 29 May 20:33:16 20:35:58 17° 93° (E) 20:38:39 437.425
AIST 1 29 May 20:44:25 20:48:15 30° 90° (E) 20:52:06
ZACube-1 29 May 20:49:53 20:53:15 23° 69° (ENE) 20:56:34 437.345
BEESAT 2 29 May 21:00:17 21:04:14 60° 242° (WSW) 21:08:08 435.950
RS-15 29 May 21:00:42 21:09:34 23° 341° (NNW) 21:18:45 29.354- 29.394
CUBEBUG 2 29 May 21:04:27 21:08:48 79° 78° (ENE) 21:13:04 437.445
HO-68 29 May 21:09:50 21:16:30 42° 261° (W) 21:23:13 435.675
AUBIESAT-1 29 May 21:24:36 21:25:50 11° 262° (W) 21:27:03 437.475
SEEDS 29 May 21:24:45 21:28:15 26° 265° (W) 21:31:46 437.485
FUNcube-1 29 May 21:25:47 21:29:54 57° 75° (ENE) 21:33:59 145.935
CANX-2 29 May 21:27:54 21:30:29 16° 268° (W) 21:33:04 2200.000
UWE-3 29 May 21:28:09 21:32:27 81° 260° (W) 21:36:40 435.000/436.395/437.385
PHONESAT 2.4 29 May 21:30:29 21:33:24 36° 157° (SSE) 21:36:20 2401.200-2431.200
BEESAT 3 29 May 21:31:48 21:34:08 15° 250° (WSW) 21:36:27 437.485
AIST 2 29 May 21:51:28 21:55:08 29° 51° (NE) 21:58:47 435.215
ISS 29 May 22:04:45 22:07:35 27° 332° (NNW) 22:10:26 145.825
Oscar 11 29 May 22:06:19 22:10:20 39° 262° (W) 22:14:24 145.826/435.025
PRISM 29 May 22:07:33 22:11:25 37° 289° (WNW) 22:15:14 437.425
AAUSAT CUBESAT 2 29 May 22:07:53 22:10:18 15° 268° (W) 22:12:45 437.432
COMPASS 1 29 May 22:08:34 22:10:14 12° 269° (W) 22:11:55 437.405
STRAND 1 29 May 22:12:26 22:13:36 11° 301° (WNW) 22:14:47 437.568
HUMSAT D 29 May 22:12:42 22:16:37 47° 73° (ENE) 22:20:32 437.325/437.525
CUSAT 1 29 May 22:14:52 22:22:01 42° 71° (ENE) 22:27:54 437.405
UNISAT 6 29 May 22:15:48 22:17:31 12° 91° (E) 22:19:13 437.425
DELFI C3 29 May 22:16:20 22:20:15 63° 259° (W) 22:24:13 145.870
TIGRISAT 29 May 22:22:07 22:24:16 13° 92° (E) 22:26:25 435.000
AIST 1 29 May 22:22:27 22:25:51 22° 286° (WNW) 22:29:16
GONETS M04 29 May 22:22:31 22:31:20 86° 277° (W) 22:40:10
ZACube-1 29 May 22:25:50 22:29:25 26° 264° (W) 22:32:58 437.345
DANDE 29 May 22:29:40 22:37:04 33° 68° (ENE) 22:43:42 436.750
ESTCUBE 1 29 May 22:32:35 22:35:24 17° 65° (ENE) 22:38:15 437.505/2401.250
CUBEBUG 1 29 May 22:32:54 22:34:05 11° 62° (ENE) 22:35:16 437.445
Cosmos 2499 29 May 22:35:45 22:42:56 71° 94° (E) 22:50:42 435.465 / 435.565
VELOX 1 29 May 22:44:49 22:47:20 15° 64° (ENE) 22:49:51 145.980
ANTELSAT 29 May 22:55:02 22:58:59 33° 98° (E) 23:02:57 437.575/2403.000
FUNcube-1 29 May 23:05:26 23:06:28 11° 269° (W) 23:07:30 145.935
PHONESAT 2.4 29 May 23:06:54 23:10:02 79° 352° (N) 23:13:11 2401.200-2431.200
UKube-1 29 May 23:14:57 23:18:11 21° 67° (ENE) 23:21:26 .
SO-50 29 May 23:17:27 23:21:13 23° 111° (ESE) 23:25:02 436.795
RS-15 29 May 23:19:15 23:28:14 23° 17° (NNE) 23:37:19 29.354- 29.394
AISAT 29 May 23:19:24 23:23:28 36° 71° (ENE) 23:27:34 437.250
NANOSAT C BR1 29 May 23:24:42 23:25:49 11° 91° (E) 23:26:57 145.865
AIST 2 29 May 23:30:05 23:33:31 25° 247° (WSW) 23:36:55 435.215
ISS 29 May 23:43:59 23:44:54 11° 352° (N) 23:45:49 145.825
UNISAT 6 29 May 23:50:18 23:54:31 55° 286° (WNW) 23:58:49 437.425
HUMSAT D 29 May 23:50:46 23:52:30 12° 269° (W) 23:54:14 437.325/437.525
50 SAT 29 May 23:52:20 23:55:57 87° 255° (WSW) 23:59:37 437.505
TIGRISAT 29 May 23:57:03 00:01:13 49° 287° (WNW) 00:05:26 435.000
CUSAT 1 29 May 23:57:22 00:03:52 34° 274° (W) 00:09:20 437.405
DUCHIFAT 1 29 May 23:59:58 00:03:33 27° 96° (E) 00:07:07 145.980
DX 1 30 May 00:04:56 00:09:20 88° 259° (WSW) 00:13:45 434.975-435.025
CUBEBUG 1 30 May 00:05:19 00:09:44 73° 258° (WSW) 00:14:11 437.445
ESTCUBE 1 30 May 00:07:28 00:11:48 47° 261° (W) 00:16:12 437.505/2401.250
BUGSAT 1 30 May 00:08:49 00:11:09 15° 93° (E) 00:13:27 437.445
DANDE 30 May 00:12:11 00:20:18 55° 269° (W) 00:27:22 436.750
VELOX 1 30 May 00:19:00 00:23:21 52° 260° (W) 00:27:43 145.980
SPROUT 30 May 00:21:06 00:25:20 63° 74° (ENE) 00:29:35 437.525
GONETS M04 30 May 00:24:07 00:29:29 17° 298° (WNW) 00:34:53
Cosmos 2499 30 May 00:31:37 00:36:55 21° 295° (WNW) 00:42:30 435.465 / 435.565
ANTELSAT 30 May 00:32:17 00:35:29 21° 293° (WNW) 00:38:43 437.575/2403.000
TISAT 1 30 May 00:36:51 00:40:20 25° 69° (ENE) 00:43:49 437.305
POPSAT HIP 1 30 May 00:40:34 00:44:47 88° 291° (WNW) 00:48:58 437.405
QB50P1 30 May 00:40:43 00:44:56 86° 278° (W) 00:49:07 145.935-145.965
PHONESAT 2.4 30 May 00:43:43 00:46:51 85° 10° (N) 00:50:00 2401.200-2431.200
QB50P2 30 May 00:43:56 00:48:09 75° 284° (WNW) 00:52:20 145.880/145.840
POLYITAN 1 30 May 00:46:25 00:50:37 73° 284° (WNW) 00:54:47 437.675
UKube-1 30 May 00:50:05 00:54:01 33° 262° (W) 00:57:58 .
AISAT 30 May 00:56:44 01:00:02 20° 266° (W) 01:03:20 437.250
SO-50 30 May 00:56:46 01:01:27 44° 307° (NW) 01:06:09 436.795
NANOSAT C BR1 30 May 00:57:47 01:01:54 57° 286° (WNW) 01:06:00 145.865
ITUPSAT 1 30 May 01:04:18 01:05:16 11° 60° (ENE) 01:06:15 437.325
Oscar 19 30 May 01:09:29 01:10:59 11° 89° (E) 01:12:29 437.125/150
ISS 30 May 01:21:02 01:22:30 12° 13° (NNE) 01:23:58 145.825
BEESAT 30 May 01:23:46 01:26:53 18° 64° (ENE) 01:30:00 436.000
JAS-2 30 May 01:26:49 01:33:49 47° 97° (E) 01:40:01 435.910
RS-15 30 May 01:32:37 01:44:36 53° 48° (NE) 01:56:30 29.354- 29.394
DUCHIFAT 1 30 May 01:35:48 01:39:07 23° 292° (WNW) 01:42:24 145.980
BUGSAT 1 30 May 01:42:56 01:46:42 38° 288° (WNW) 01:50:25 437.445
Gurwin Techsat 1B 30 May 01:51:45 01:54:01 13° 90° (E) 01:56:15 435.225
SPROUT 30 May 02:00:59 02:01:40 10° 270° (W) 02:02:22 437.525
TISAT 1 30 May 02:12:23 02:15:54 25° 264° (W) 02:19:25 437.305
PHONESAT 2.4 30 May 02:20:38 02:23:26 30° 206° (SSW) 02:26:13 2401.200-2431.200
SWISSCUBE 30 May 02:30:02 02:34:47 90° 233° (SW) 02:39:35 437.505
ITUPSAT 1 30 May 02:37:37 02:42:22 85° 255° (WSW) 02:47:10 437.325
YUBILEINY 30 May 02:43:31 02:51:34 39° 73° (ENE) 02:59:36 435.215
Oscar 19 30 May 02:45:43 02:50:52 79° 285° (WNW) 02:55:59 437.125/150
ISS 30 May 02:56:33 02:59:39 39° 32° (NNE) 03:02:44 145.825
BEESAT 30 May 02:59:40 03:04:16 49° 260° (W) 03:08:53 436.000
JAS-2 30 May 03:12:10 03:18:31 32° 297° (WNW) 03:24:17 435.910
KKS-1 30 May 03:13:46 03:17:34 28° 69° (ENE) 03:21:22 437.445
Gurwin Techsat 1B 30 May 03:29:10 03:34:29 75° 286° (WNW) 03:39:47 435.225
ITAMSAT 1 30 May 03:32:59 03:38:01 46° 100° (E) 03:43:01 435.822/435.867
Cosmos 2491 30 May 03:38:09 03:46:20 45° 88° (E) 03:54:31 435.465 / 435.565
STARS 30 May 03:42:19 03:46:06 28° 69° (ENE) 03:49:53 437.465
RS-15 30 May 03:45:29 03:57:06 51° 250° (WSW) 04:08:37 29.354- 29.394
MOZHAYETS 4 30 May 03:47:32 03:51:52 46° 72° (ENE) 03:56:15
Cosmos 2504 30 May 04:01:00 04:08:41 36° 73° (ENE) 04:16:34 435.465 / 435.565
AO-7 30 May 04:30:06 04:38:15 53° 102° (ESE) 04:46:21 29.400- 29.500
ISS 30 May 04:33:23 04:35:55 21° 228° (SW) 04:38:26 145.825
YUBILEINY 30 May 04:40:15 04:48:23 45° 272° (W) 04:56:33 435.215
AO-85 30 May 04:43:36 04:47:42 22° 110° (ESE) 04:51:48 145.980
KKS-1 30 May 04:50:21 04:54:04 26° 264° (W) 04:57:49 437.445
ITAMSAT 1 30 May 05:13:13 05:17:09 22° 296° (WNW) 05:21:04 435.822/435.867
STARS 30 May 05:18:48 05:22:25 24° 264° (W) 05:26:01 437.465
CUBESAT XI-V 30 May 05:19:56 05:24:27 50° 73° (ENE) 05:29:00 437.345
MOZHAYETS 4 30 May 05:26:30 05:29:16 16° 268° (W) 05:32:04
Cosmos 2491 30 May 05:35:07 05:43:12 39° 287° (WNW) 05:51:20 435.465 / 435.565
Cosmos 2504 30 May 05:54:05 06:02:13 51° 270° (W) 06:10:38 435.465 / 435.565
BRITE-PL 30 May 05:56:01 05:57:04 11° 87° (E) 05:58:06 437.365/2234.400
HORYU 2 30 May 06:07:51 06:12:17 71° 285° (WNW) 06:16:42 437.375
NOAA 15 30 May 06:07:57 06:11:52 21° 94° (E) 06:15:45 137.62
STRAND 1 30 May 06:08:41 06:11:32 15° 62° (ENE) 06:14:22 437.568
AO-85 30 May 06:22:32 06:27:53 54° 306° (NW) 06:33:07 145.980
Cubesat XI-IV 30 May 06:22:40 06:26:32 20° 93° (E) 06:30:21 437.490
AO-7 30 May 06:23:21 06:30:41 36° 300° (WNW) 06:38:01 29.400- 29.500
NOAA 18 30 May 06:42:34 06:47:36 36° 98° (E) 06:52:38 137.9125
CUBESAT XI-V 30 May 06:59:20 07:02:06 16° 269° (W) 07:04:53 437.345
CUTE-I 30 May 07:07:01 07:12:16 52° 100° (E) 07:17:29 437.470
PRISM 30 May 07:23:19 07:24:46 12° 63° (ENE) 07:26:14 437.425
LilacSat-2 30 May 07:24:26 07:28:14 87° 96° (E) 07:32:02 437.200
BRITE-PL 30 May 07:31:13 07:36:14 73° 285° (WNW) 07:40:49 437.365/2234.400
GOMX 1 30 May 07:41:34 07:46:08 65° 100° (E) 07:50:24 467.674
STRAND 1 30 May 07:45:04 07:50:07 66° 258° (WSW) 07:55:13 437.568
NOAA 15 30 May 07:46:48 07:51:51 47° 289° (WNW) 07:56:52 137.62
JUGNU 30 May 07:48:46 07:49:36 10° 184° (S) 07:50:27 437.505
SO-50 30 May 07:49:31 07:52:49 18° 43° (NE) 07:56:02 436.795
Cubesat XI-IV 30 May 08:01:40 08:06:50 50° 289° (WNW) 08:12:00 437.490
O/OREOS (USA 219) 30 May 08:02:52 08:03:02 10° 97° (E) 08:03:12 437.305
CUTE 1.7 + AOD 2 30 May 08:04:29 08:06:36 13° 91° (E) 08:08:41 437.475
AO-85 30 May 08:07:58 08:09:31 11° 325° (NW) 08:11:03 145.980
DOVE 4 30 May 08:16:10 08:20:29 70° 101° (E) 08:24:37 437.250
PCSat 30 May 08:18:30 08:21:58 17° 105° (ESE) 08:25:27 145.827
NOAA 18 30 May 08:23:27 08:28:06 29° 294° (WNW) 08:32:46 137.9125
CINEMA 3 30 May 08:26:22 08:29:46 24° 95° (E) 08:33:10 145.822/145.860
Cosmos 2499 30 May 08:27:33 08:34:35 27° 69° (ENE) 08:41:43 435.465 / 435.565
AIST 1 30 May 08:29:09 08:33:31 84° 81° (E) 08:37:49
GONETS M04 30 May 08:34:13 08:42:30 45° 75° (ENE) 08:50:42
HO-68 30 May 08:38:00 08:44:42 41° 99° (E) 08:51:23 435.675
CUTE-I 30 May 08:48:03 08:51:54 20° 296° (WNW) 08:55:43 437.470
PRISM 30 May 08:55:27 08:59:33 60° 259° (W) 09:03:42 437.425
CUBEBUG 2 30 May 08:57:07 08:59:47 16° 93° (E) 09:02:29 437.445
AUBIESAT-1 30 May 09:01:13 09:04:19 38° 104° (ESE) 09:07:29 437.475
SEEDS 30 May 09:08:38 09:12:48 52° 100° (E) 09:16:58 437.485
M-CUBED/EXP-1 PRIME 30 May 09:10:24 09:13:39 68° 106° (ESE) 09:16:56 437.505
CANX-2 30 May 09:11:43 09:16:01 87° 289° (WNW) 09:20:20 2200.000
UNISAT 6 30 May 09:15:38 09:16:11 10° 62° (ENE) 09:16:43 437.425
FUNcube-1 30 May 09:16:43 09:18:01 11° 91° (E) 09:19:19 145.935
UWE-3 30 May 09:19:11 09:22:20 20° 95° (E) 09:25:29 435.000/436.395/437.385
TIGRISAT 30 May 09:21:19 09:22:40 11° 63° (ENE) 09:24:01 435.000
GOMX 1 30 May 09:21:54 09:23:33 12° 299° (WNW) 09:25:10 467.674
SO-50 30 May 09:29:06 09:33:43 60° 242° (WSW) 09:38:10 436.795
O/OREOS (USA 219) 30 May 09:37:14 09:41:46 71° 292° (WNW) 09:46:19 437.305
CUTE 1.7 + AOD 2 30 May 09:38:32 09:42:41 49° 286° (WNW) 09:46:50 437.475
SRMSAT 30 May 09:47:33 09:48:32 10° 182° (S) 09:49:31 437.500
AAUSAT CUBESAT 2 30 May 09:48:55 09:53:09 88° 108° (ESE) 09:57:20 437.432
COMPASS 1 30 May 09:49:19 09:53:32 73° 284° (WNW) 09:57:44 437.405
ANTELSAT 30 May 09:53:19 09:56:57 27° 69° (ENE) 10:00:33 437.575/2403.000
Oscar 11 30 May 09:54:09 09:58:13 37° 98° (E) 10:02:16 145.826/435.025
DELFI C3 30 May 09:55:50 09:58:32 17° 93° (E) 10:01:14 145.870
PCSat 30 May 09:59:28 10:04:49 61° 301° (WNW) 10:10:13 145.827
CINEMA 3 30 May 10:03:28 10:06:52 25° 291° (WNW) 10:10:15 145.822/145.860
ZACube-1 30 May 10:13:57 10:18:07 57° 100° (E) 10:22:21 437.345
Cosmos 2499 30 May 10:19:42 10:28:20 69° 267° (W) 10:37:06 435.465 / 435.565
HO-68 30 May 10:25:50 10:32:18 38° 296° (WNW) 10:38:46 435.675
GONETS M04 30 May 10:31:21 10:39:05 38° 274° (W) 10:46:49
CUBEBUG 2 30 May 10:32:41 10:36:32 38° 288° (WNW) 10:40:28 437.445
AUBIESAT-1 30 May 10:37:34 10:38:32 11° 299° (WNW) 10:39:29 437.475
SEEDS 30 May 10:45:57 10:48:03 13° 295° (WNW) 10:50:08 437.485
UNISAT 6 30 May 10:47:58 10:52:18 72° 257° (WSW) 10:56:36 437.425
FUNcube-1 30 May 10:50:27 10:54:34 57° 286° (WNW) 10:58:46 145.935
DUCHIFAT 1 30 May 10:51:33 10:54:31 19° 67° (ENE) 10:57:29 145.980
BEESAT 2 30 May 10:51:40 10:55:03 27° 113° (ESE) 10:58:28 435.950
TIGRISAT 30 May 10:54:31 10:58:50 64° 258° (WSW) 11:03:06 435.000
UWE-3 30 May 10:55:07 10:58:49 31° 289° (WNW) 11:02:36 435.000/436.395/437.385
BUGSAT 1 30 May 10:59:28 11:00:22 11° 63° (ENE) 11:01:17 437.445
CUSAT 1 30 May 11:14:05 11:20:13 45° 89° (E) 11:27:30 437.405
BEESAT 3 30 May 11:19:53 11:23:49 75° 302° (WNW) 11:27:47 437.485
DELFI C3 30 May 11:29:49 11:33:29 33° 288° (WNW) 11:37:07 145.870
ANTELSAT 30 May 11:30:03 11:33:36 25° 264° (W) 11:37:08 437.575/2403.000
Oscar 11 30 May 11:31:02 11:34:04 19° 293° (WNW) 11:37:05 145.826/435.025
POPSAT HIP 1 30 May 11:31:50 11:36:00 59° 74° (ENE) 11:40:10 437.405
QB50P1 30 May 11:31:55 11:36:05 60° 74° (ENE) 11:40:15 145.935-145.965
HUMSAT D 30 May 11:32:05 11:36:15 77° 284° (WNW) 11:40:28 437.325/437.525
QB50P2 30 May 11:35:16 11:39:28 71° 76° (ENE) 11:43:42 145.880/145.840
DANDE 30 May 11:36:36 11:41:33 30° 84° (E) 11:47:37 436.750
JAS-2 30 May 11:37:39 11:43:16 23° 59° (ENE) 11:49:04 435.910
POLYITAN 1 30 May 11:37:45 11:41:58 72° 75° (ENE) 11:46:10 437.675
PCSat 30 May 11:47:50 11:49:22 11° 322° (NW) 11:50:53 145.827
NANOSAT C BR1 30 May 11:48:32 11:52:45 90° 223° (SW) 11:56:59 145.865
ZACube-1 30 May 11:52:12 11:53:57 12° 295° (WNW) 11:55:42 437.345
DX 1 30 May 11:55:13 11:58:01 17° 93° (E) 12:00:49 434.975-435.025
CUBEBUG 1 30 May 11:55:34 11:58:57 22° 94° (E) 12:02:18 437.445
ESTCUBE 1 30 May 12:00:48 12:05:02 37° 98° (E) 12:09:14 437.505/2401.250
VELOX 1 30 May 12:10:14 12:14:08 30° 97° (E) 12:18:00 145.980
SPROUT 30 May 12:10:20 12:11:40 11° 91° (E) 12:12:59 437.525
Cosmos 2499 30 May 12:17:00 12:19:50 12° 285° (WNW) 12:22:41 435.465 / 435.565
Oscar 19 30 May 12:24:36 12:27:53 17° 63° (ENE) 12:31:11 437.125/150
DUCHIFAT 1 30 May 12:26:07 12:29:58 34° 262° (W) 12:33:49 145.980
BEESAT 2 30 May 12:29:30 12:32:51 25° 310° (NW) 12:36:13 435.950
BUGSAT 1 30 May 12:31:01 12:35:11 66° 258° (WSW) 12:39:21 437.445
UKube-1 30 May 12:37:42 12:41:47 40° 99° (E) 12:45:50 .
